This is the latest recevied weather packets stored in our database for station/object vk4zu-13. If no packets are shown the sender has not sent any weather packets the latest 10 day(s).
| Time | Temp. | Humidity | Pressure | Rain* | Wind** | Luminosity | Snow |
|---|---|---|---|---|---|---|---|
| 1777086547 | 19.44° C | 89% | 1024.2 hPa | 0 mm | - | 206 W/m² | - |
| 1777086481 | 19.44° C | 88% | 1024.3 hPa | 0 mm | - | 204 W/m² | - |
| 1777086419 | 19.44° C | 88% | 1024.2 hPa | 0 mm | - | 200 W/m² | - |
| 1777086350 | 19.44° C | 89% | 1024.2 hPa | 0 mm | - | 199 W/m² | - |
| 1777086279 | 19.44° C | 89% | 1024.4 hPa | 0 mm | - | 199 W/m² | - |
| 1777086213 | 19.44° C | 89% | 1024.2 hPa | 0 mm | - | 197 W/m² | - |
| 1777086140 | 19.44° C | 88% | 1024.3 hPa | 0 mm | - | 195 W/m² | - |
| 1777086051 | 19.44° C | 89% | 1024.3 hPa | 0 mm | - | 195 W/m² | - |
| 1777085990 | 19.44° C | 88% | 1024.3 hPa | 0 mm | - | 193 W/m² | - |
| 1777085926 | 19.44° C | 89% | 1024.4 hPa | 0 mm | - | 193 W/m² | - |
| 1777085863 | 19.44° C | 90% | 1024.3 hPa | 0 mm | - | 192 W/m² | - |
| 1777085804 | 19.44° C | 90% | 1024.3 hPa | 0 mm | - | 190 W/m² | - |
| 1777085741 | 19.44° C | 90% | 1024.4 hPa | 0 mm | - | 190 W/m² | - |
| 1777085674 | 19.44° C | 91% | 1024.4 hPa | 0 mm | - | 188 W/m² | - |
| 1777085612 | 19.44° C | 91% | 1024.3 hPa | 0 mm | - | 188 W/m² | - |
| 1777085550 | 19.44° C | 91% | 1024.5 hPa | 0 mm | - | 188 W/m² | - |
| 1777085500 | 19.44° C | 90% | 1024.5 hPa | 0 mm | - | 190 W/m² | - |
| 1777085479 | 19.44° C | 90% | 1024.6 hPa | 0 mm | - | 190 W/m² | - |
| 1777085363 | 19.44° C | 91% | 1024.5 hPa | 0 mm | - | 190 W/m² | - |
| 1777085297 | 19.44° C | 90% | 1024.5 hPa | 0 mm | - | 190 W/m² | - |
| 1777085226 | 19.44° C | 90% | 1024.6 hPa | 0 mm | - | 190 W/m² | - |
| 1777085154 | 19.44° C | 90% | 1024.5 hPa | 0.25 mm | - | 188 W/m² | - |
| 1777085085 | 19.44° C | 91% | 1024.5 hPa | 0.25 mm | - | 183 W/m² | - |
| 1777085016 | 19.44° C | 90% | 1024.6 hPa | 0.25 mm | - | 183 W/m² | - |
| 1777084955 | 19.44° C | 90% | 1024.6 hPa | 0.25 mm | - | 178 W/m² | - |
* Rain latest hour (hover to see other rain measurements)
** Current wind speed in m/s (hover to see current wind gust speed)